INTERCOSMOS 25 (21819 NORAD) Tracking and Keplerian Element Data

This shows tracking and keplerian element data for the satellite.

Feedback or suggestion? Click here.




ElementValue
Catalog21819
NameINTERCOSMOS 25
Epoch Orbit15991
Epoch Day198.92003526
Epoch Year2018
RAAN185.6522
Inclination82.5925
Eccentricity0.1515683
Argument of Perigee324.5811
Mean Anonmoly26.3154
Mean Motion12.04922363
Decay Rate7.47E-06
L11 21819U 91086A 18198.92003526 .00000747 00000-0 15313-3 0 9993
L22 21819 82.5925 185.6522 1515683 324.5811 26.3154 12.04922363159914

Live tracking and technical data element details for INTERCOSMOS 25 (NORAD 21819). INTERCOSMOS 25 can be tracked NOW for your location showing map with azimuth and elevation plus other details from your city location.

Track the satellite on the map from your city or location and see movement details for azimuth, elevation, latitude, longitude, range, height, and movement on the map or in text.







IsCatalogInMostPopularTable: catalog: 21819, numindb: 35
Update: records affected: 1



GetName: 21819 INTERCOSMOS 25

Hit Count: updated at: Thu, 19 Jul 2018 03:45:53 GMT